NIMBUS 2 DEB

Satellite information

Favourite Embed

Satellite Type and Status

DEBRISIN ORBIT

Key statistics

Satellite NIMBUS 2 DEB at a glance.

Uptime

21708

Days in orbit

Revolutions

≈ 14.0

Per day

Orbit

SSO

Sun Synchronous Orbit

Inclination

100.3

Latest

Satellite identification and parameters

Extended collection of information and parameters for NIMBUS 2 DEB.

Object identification

Identified? True

Debris? True

Object name: NIMBUS 2 DEB

International designator: 1966-040K

Object number (NORAD): 26670

Object ID (CCSDS): 26670

Country: UNITED STATES OF AMERICA (US)

Current information (Y/N): Y

RCS size: SMALL

Orbital parameters

Period: 103.191 minutes

Inclination: 100.2958 deg

SMA: 7287.65 km

Apoapsis: 931.433 km

Periapsis: 887.596 km

RAAN: 96.1485 deg

Eccentricy: 0.00300766

Argument of periapsis: 341.7028 deg

Mean anomaly: 172.0484 deg

Mean motion: 13.95473325 rev/day

Mean motion (dot): 0.00011182 rev/day2

B* drag term: 0.0082345136 1/REarth

Two-line elements (TLE)

Creation date: Oct. 20, 2025, 2:10 a.m.

Reference frame: TEME

Reference center: EARTH

Epoch: Oct. 19, 2025, 10:22 p.m. UTC

TLE line 0: 0 NIMBUS 2 DEB

TLE line 1: 1 26670U 66040K 25292.93237722 .00011182 00000-0 82345-2 0 9999

TLE line 2: 2 26670 100.2958 96.1485 0030077 341.7028 172.0484 13.95473325917042

Live tracking on map

Real-time ground track for satellite NIMBUS 2 DEB.

In-orbit conjunctions

A list of the most updated potential collisions computed for object NIMBUS 2 DEB.

Target Orbit TCA Probability of collision Miss distance Type
COSMOS 1299 LEO 2024-07-04 17:21:56 0.0002250638 302.0 (m) PAYLOAD
COSMOS 1308 LEO 2024-06-23 03:59:41 0.0003204606 406.0 (m) PAYLOAD

Associated space launch

Nimbus 2, the second in a series of second-generation meteorological research-and-development satellites, added an additional medium-resolution infrared radiometer (MRIR) compared to Nimbus 1.

NIMBUS 2 DEB was lifted into orbit during the mission ‘Thor SLV-2A Agena B | Nimbus 2’, on board a Thor SLV-2A Agena B space rocket.

The launch took place on May 15, 1966, 7:55 a.m. from Space Launch Complex 2E.

For more information about the launch, click the button.

Launch to space Thor SLV-2A Agena B | Nimbus 2
Thor SLV-2A Agena B | Nimbus 2

Agency: N/A

Status: Launch Successful

Launch date: May 15, 1966, 7:55 a.m. UTC

Rocket: Thor SLV-2A Agena B

Launch pad: Space Launch Complex 2E

Location: Vandenberg SFB, CA, USA

...

Latest news about this satellite

There are no fresh news available about this satellite. Check back as we update our databases every day.


Newsletter sign-up

Weekly statistics, charts and insights to help you stay on top of the space industry.